Year,Month,Day,Hour,Minute,Value (Times are PST for temperature in C)
2016,04,07,00,00,8.00
2016,04,07,00,01,8.00
2016,04,07,00,02,8.00
2016,04,07,00,03,7.90
2016,04,07,00,04,7.90
2016,04,07,00,05,7.90
2016,04,07,00,06,7.90
2016,04,07,00,07,7.90
2016,04,07,00,08,7.90
2016,04,07,00,09,7.90
2016,04,07,00,10,7.90
2016,04,07,00,11,7.90
2016,04,07,00,12,7.90
2016,04,07,00,13,7.80
2016,04,07,00,14,7.80
2016,04,07,00,15,7.80
2016,04,07,00,16,7.80
2016,04,07,00,17,7.80
2016,04,07,00,18,7.80
2016,04,07,00,19,7.80
2016,04,07,00,20,7.70
2016,04,07,00,21,7.70
2016,04,07,00,22,7.70
2016,04,07,00,23,7.70
2016,04,07,00,24,7.70
2016,04,07,00,25,7.70
2016,04,07,00,26,7.70
2016,04,07,00,27,7.60
2016,04,07,00,28,7.60
2016,04,07,00,29,7.60
2016,04,07,00,30,7.60
2016,04,07,00,31,7.60
2016,04,07,00,32,7.60
2016,04,07,00,33,7.50
2016,04,07,00,34,7.50
2016,04,07,00,35,7.50
2016,04,07,00,36,7.50
2016,04,07,00,37,7.50
2016,04,07,00,38,7.50
2016,04,07,00,39,7.50
2016,04,07,00,40,7.40
2016,04,07,00,41,7.40
2016,04,07,00,42,7.40
2016,04,07,00,43,7.40
2016,04,07,00,44,7.40
2016,04,07,00,45,7.40
2016,04,07,00,46,7.40
2016,04,07,00,47,7.40
2016,04,07,00,48,7.40
2016,04,07,00,49,7.40
2016,04,07,00,50,7.40
2016,04,07,00,51,7.40
2016,04,07,00,52,7.40
2016,04,07,00,53,7.40
2016,04,07,00,54,7.30
2016,04,07,00,55,7.30
2016,04,07,00,56,7.30
2016,04,07,00,57,7.30
2016,04,07,00,58,7.30
2016,04,07,00,59,7.30
2016,04,07,01,00,7.30
2016,04,07,01,01,7.20
2016,04,07,01,02,7.20
2016,04,07,01,03,7.20
2016,04,07,01,04,7.20
2016,04,07,01,05,7.20
2016,04,07,01,06,7.20
2016,04,07,01,07,7.20
2016,04,07,01,08,7.20
2016,04,07,01,09,7.20
2016,04,07,01,10,7.20
2016,04,07,01,11,7.20
2016,04,07,01,12,7.20
2016,04,07,01,13,7.20
2016,04,07,01,14,7.20
2016,04,07,01,15,7.20
2016,04,07,01,16,7.20
2016,04,07,01,17,7.20
2016,04,07,01,18,7.20
2016,04,07,01,19,7.20
2016,04,07,01,20,7.20
2016,04,07,01,21,7.20
2016,04,07,01,22,7.20
2016,04,07,01,23,7.20
2016,04,07,01,24,7.20
2016,04,07,01,25,7.20
2016,04,07,01,26,7.20
2016,04,07,01,27,7.10
2016,04,07,01,28,7.10
2016,04,07,01,29,7.10
2016,04,07,01,30,7.10
2016,04,07,01,31,7.10
2016,04,07,01,32,7.10
2016,04,07,01,33,7.10
2016,04,07,01,34,7.00
2016,04,07,01,35,7.00
2016,04,07,01,36,7.00
2016,04,07,01,37,7.00
2016,04,07,01,38,7.00
2016,04,07,01,39,6.90
2016,04,07,01,40,6.90
2016,04,07,01,41,6.90
2016,04,07,01,42,6.90
2016,04,07,01,43,6.90
2016,04,07,01,44,6.90
2016,04,07,01,45,6.90
2016,04,07,01,46,6.90
2016,04,07,01,47,6.90
2016,04,07,01,48,6.90
2016,04,07,01,49,6.90
2016,04,07,01,50,6.90
2016,04,07,01,51,6.90
2016,04,07,01,52,6.90
2016,04,07,01,53,6.90
2016,04,07,01,54,6.90
2016,04,07,01,55,6.90
2016,04,07,01,56,6.90
2016,04,07,01,57,6.80
2016,04,07,01,58,6.80
2016,04,07,01,59,6.80
2016,04,07,02,00,6.80
2016,04,07,02,01,6.80
2016,04,07,02,02,6.80
2016,04,07,02,03,6.80
2016,04,07,02,04,6.80
2016,04,07,02,05,6.80
2016,04,07,02,06,6.80
2016,04,07,02,07,6.80
2016,04,07,02,08,6.80
2016,04,07,02,09,6.80
2016,04,07,02,10,6.80
2016,04,07,02,11,6.80
2016,04,07,02,12,6.80
2016,04,07,02,13,6.80
2016,04,07,02,14,6.80
2016,04,07,02,15,6.80
2016,04,07,02,16,6.80
2016,04,07,02,17,6.80
2016,04,07,02,18,6.80
2016,04,07,02,19,6.80
2016,04,07,02,20,6.80
2016,04,07,02,21,6.80
2016,04,07,02,22,6.70
2016,04,07,02,23,6.70
2016,04,07,02,24,6.70
2016,04,07,02,25,6.70
2016,04,07,02,26,6.70
2016,04,07,02,27,6.70
2016,04,07,02,28,6.70
2016,04,07,02,29,6.70
2016,04,07,02,30,6.70
2016,04,07,02,31,6.70
2016,04,07,02,32,6.60
2016,04,07,02,33,6.60
2016,04,07,02,34,6.70
2016,04,07,02,35,6.70
2016,04,07,02,36,6.70
2016,04,07,02,37,6.60
2016,04,07,02,38,6.60
2016,04,07,02,39,6.60
2016,04,07,02,40,6.60
2016,04,07,02,41,6.60
2016,04,07,02,42,6.60
2016,04,07,02,43,6.60
2016,04,07,02,44,6.60
2016,04,07,02,45,6.60
2016,04,07,02,46,6.60
2016,04,07,02,47,6.60
2016,04,07,02,48,6.60
2016,04,07,02,49,6.60
2016,04,07,02,50,6.60
2016,04,07,02,51,6.60
2016,04,07,02,52,6.60
2016,04,07,02,53,6.60
2016,04,07,02,54,6.60
2016,04,07,02,55,6.60
2016,04,07,02,56,6.50
2016,04,07,02,57,6.50
2016,04,07,02,58,6.50
2016,04,07,02,59,6.50
2016,04,07,03,00,6.50
2016,04,07,03,01,6.50
2016,04,07,03,02,6.50
2016,04,07,03,03,6.50
2016,04,07,03,04,6.40
2016,04,07,03,05,6.40
2016,04,07,03,06,6.40
2016,04,07,03,07,6.40
2016,04,07,03,08,6.40
2016,04,07,03,09,6.40
2016,04,07,03,10,6.40
2016,04,07,03,11,6.40
2016,04,07,03,12,6.40
2016,04,07,03,13,6.40
2016,04,07,03,14,6.40
2016,04,07,03,15,6.40
2016,04,07,03,16,6.40
2016,04,07,03,17,6.40
2016,04,07,03,18,6.40
2016,04,07,03,19,6.40
2016,04,07,03,20,6.40
2016,04,07,03,21,6.40
2016,04,07,03,22,6.40
2016,04,07,03,23,6.40
2016,04,07,03,24,6.40
2016,04,07,03,25,6.40
2016,04,07,03,26,6.40
2016,04,07,03,27,6.30
2016,04,07,03,28,6.30
2016,04,07,03,29,6.30
2016,04,07,03,30,6.30
2016,04,07,03,31,6.30
2016,04,07,03,32,6.30
2016,04,07,03,33,6.30
2016,04,07,03,34,6.30
2016,04,07,03,35,6.30
2016,04,07,03,36,6.30
2016,04,07,03,37,6.20
2016,04,07,03,38,6.20
2016,04,07,03,39,6.20
2016,04,07,03,40,6.20
2016,04,07,03,41,6.20
2016,04,07,03,42,6.20
2016,04,07,03,43,6.20
2016,04,07,03,44,6.20
2016,04,07,03,45,6.20
2016,04,07,03,46,6.20
2016,04,07,03,47,6.20
2016,04,07,03,48,6.20
2016,04,07,03,49,6.20
2016,04,07,03,50,6.20
2016,04,07,03,51,6.20
2016,04,07,03,52,6.20
2016,04,07,03,53,6.20
2016,04,07,03,54,6.20
2016,04,07,03,55,6.20
2016,04,07,03,56,6.20
2016,04,07,03,57,6.20
2016,04,07,03,58,6.20
2016,04,07,03,59,6.20
2016,04,07,04,00,6.20
2016,04,07,04,01,6.20
2016,04,07,04,02,6.10
2016,04,07,04,03,6.10
2016,04,07,04,04,6.10
2016,04,07,04,05,6.10
2016,04,07,04,06,6.10
2016,04,07,04,07,6.10
2016,04,07,04,08,6.10
2016,04,07,04,09,6.00
2016,04,07,04,10,6.00
2016,04,07,04,11,6.00
2016,04,07,04,12,6.00
2016,04,07,04,13,6.00
2016,04,07,04,14,6.00
2016,04,07,04,15,6.00
2016,04,07,04,16,6.00
2016,04,07,04,17,6.00
2016,04,07,04,18,6.00
2016,04,07,04,19,6.00
2016,04,07,04,20,6.00
2016,04,07,04,21,6.00
2016,04,07,04,22,6.00
2016,04,07,04,23,6.00
2016,04,07,04,24,6.00
2016,04,07,04,25,6.00
2016,04,07,04,26,6.00
2016,04,07,04,27,6.00
2016,04,07,04,28,6.00
2016,04,07,04,29,6.00
2016,04,07,04,30,6.00
2016,04,07,04,31,6.00
2016,04,07,04,32,6.00
2016,04,07,04,33,6.00
2016,04,07,04,34,6.00
2016,04,07,04,35,6.00
2016,04,07,04,36,6.00
2016,04,07,04,37,6.00
2016,04,07,04,38,5.90
2016,04,07,04,39,5.90
2016,04,07,04,40,5.90
2016,04,07,04,41,5.90
2016,04,07,04,42,5.90
2016,04,07,04,43,5.90
2016,04,07,04,44,5.90
2016,04,07,04,45,5.90
2016,04,07,04,46,5.90
2016,04,07,04,47,5.90
2016,04,07,04,48,5.90
2016,04,07,04,49,5.90
2016,04,07,04,50,5.90
2016,04,07,04,51,5.90
2016,04,07,04,52,5.80
2016,04,07,04,53,5.80
2016,04,07,04,54,5.80
2016,04,07,04,55,5.80
2016,04,07,04,56,5.80
2016,04,07,04,57,5.80
2016,04,07,04,58,5.80
2016,04,07,04,59,5.80
2016,04,07,05,00,5.80
2016,04,07,05,01,5.80
2016,04,07,05,02,5.80
2016,04,07,05,03,5.80
2016,04,07,05,04,5.80
2016,04,07,05,05,5.80
2016,04,07,05,06,5.80
2016,04,07,05,07,5.80
2016,04,07,05,08,5.80
2016,04,07,05,09,5.80
2016,04,07,05,10,5.80
2016,04,07,05,11,5.80
2016,04,07,05,12,5.80
2016,04,07,05,13,5.80
2016,04,07,05,14,5.80
2016,04,07,05,15,5.80
2016,04,07,05,16,5.80
2016,04,07,05,17,5.80
2016,04,07,05,18,5.80
2016,04,07,05,19,5.80
2016,04,07,05,20,5.80
2016,04,07,05,21,5.80
2016,04,07,05,22,5.80
2016,04,07,05,23,5.80
2016,04,07,05,24,5.80
2016,04,07,05,25,5.80
2016,04,07,05,26,5.80
2016,04,07,05,27,5.80
2016,04,07,05,28,5.80
2016,04,07,05,29,5.80
2016,04,07,05,30,5.80
2016,04,07,05,31,5.80
2016,04,07,05,32,5.80
2016,04,07,05,33,5.80
2016,04,07,05,34,5.80
2016,04,07,05,35,5.80
2016,04,07,05,36,5.80
2016,04,07,05,37,5.80
2016,04,07,05,38,5.80
2016,04,07,05,39,5.80
2016,04,07,05,40,5.80
2016,04,07,05,41,5.80
2016,04,07,05,42,5.80
2016,04,07,05,43,5.80
2016,04,07,05,44,5.80
2016,04,07,05,45,5.70
2016,04,07,05,46,5.70
2016,04,07,05,47,5.70
2016,04,07,05,48,5.70
2016,04,07,05,49,5.70
2016,04,07,05,50,5.70
2016,04,07,05,51,5.70
2016,04,07,05,52,5.70
2016,04,07,05,53,5.70
2016,04,07,05,54,5.70
2016,04,07,05,55,5.70
2016,04,07,05,56,5.70
2016,04,07,05,57,5.70
2016,04,07,05,58,5.70
2016,04,07,05,59,5.70
2016,04,07,06,00,5.70
2016,04,07,06,01,5.70
2016,04,07,06,02,5.70
2016,04,07,06,03,5.70
2016,04,07,06,04,5.70
2016,04,07,06,05,5.70
2016,04,07,06,06,5.70
2016,04,07,06,07,5.70
2016,04,07,06,08,5.70
2016,04,07,06,09,5.70
2016,04,07,06,10,5.70
2016,04,07,06,11,5.70
2016,04,07,06,12,5.70
2016,04,07,06,13,5.70
2016,04,07,06,14,5.70
2016,04,07,06,15,5.60
2016,04,07,06,16,5.60
2016,04,07,06,17,5.60
2016,04,07,06,18,5.60
2016,04,07,06,19,5.60
2016,04,07,06,20,5.60
2016,04,07,06,21,5.60
2016,04,07,06,22,5.60
2016,04,07,06,23,5.60
2016,04,07,06,24,5.60
2016,04,07,06,25,5.60
2016,04,07,06,26,5.60
2016,04,07,06,27,5.60
2016,04,07,06,28,5.60
2016,04,07,06,29,5.60
2016,04,07,06,30,5.60
2016,04,07,06,31,5.60
2016,04,07,06,32,5.60
2016,04,07,06,33,5.60
2016,04,07,06,34,5.60
2016,04,07,06,35,5.60
2016,04,07,06,36,5.60
2016,04,07,06,37,5.60
2016,04,07,06,38,5.60
2016,04,07,06,39,5.60
2016,04,07,06,40,5.60
2016,04,07,06,41,5.60
2016,04,07,06,42,5.60
2016,04,07,06,43,5.60
2016,04,07,06,44,5.60
2016,04,07,06,45,5.60
2016,04,07,06,46,5.60
2016,04,07,06,47,5.60
2016,04,07,06,48,5.60
2016,04,07,06,49,5.60
2016,04,07,06,50,5.60
2016,04,07,06,51,5.60
2016,04,07,06,52,5.60
2016,04,07,06,53,5.60
2016,04,07,06,54,5.60
2016,04,07,06,55,5.60
2016,04,07,06,56,5.60
2016,04,07,06,57,5.60
2016,04,07,06,58,5.60
2016,04,07,06,59,5.60
2016,04,07,07,00,5.60
2016,04,07,07,01,5.60
2016,04,07,07,02,5.60
2016,04,07,07,03,5.70
2016,04,07,07,04,5.70
2016,04,07,07,05,5.70
2016,04,07,07,06,5.70
2016,04,07,07,07,5.70
2016,04,07,07,08,5.70
2016,04,07,07,09,5.70
2016,04,07,07,10,5.70
2016,04,07,07,11,5.70
2016,04,07,07,12,5.70
2016,04,07,07,13,5.70
2016,04,07,07,14,5.70
2016,04,07,07,15,5.70
2016,04,07,07,16,5.80
2016,04,07,07,17,5.80
2016,04,07,07,18,5.80
2016,04,07,07,19,5.80
2016,04,07,07,20,5.80
2016,04,07,07,21,5.80
2016,04,07,07,22,5.80
2016,04,07,07,23,5.80
2016,04,07,07,24,5.90
2016,04,07,07,25,5.90
2016,04,07,07,26,5.90
2016,04,07,07,27,5.90
2016,04,07,07,28,5.90
2016,04,07,07,29,5.90
2016,04,07,07,30,5.90
2016,04,07,07,31,5.90
2016,04,07,07,32,5.90
2016,04,07,07,33,5.90
2016,04,07,07,34,5.90
2016,04,07,07,35,6.00
2016,04,07,07,36,6.00
2016,04,07,07,37,6.00
2016,04,07,07,38,6.00
2016,04,07,07,39,6.00
2016,04,07,07,40,6.00
2016,04,07,07,41,6.00
2016,04,07,07,42,6.00
2016,04,07,07,43,6.00
2016,04,07,07,44,6.00
2016,04,07,07,45,6.00
2016,04,07,07,46,6.10
2016,04,07,07,47,6.10
2016,04,07,07,48,6.10
2016,04,07,07,49,6.10
2016,04,07,07,50,6.10
2016,04,07,07,51,6.10
2016,04,07,07,52,6.10
2016,04,07,07,53,6.10
2016,04,07,07,54,6.10
2016,04,07,07,55,6.10
2016,04,07,07,56,6.10
2016,04,07,07,57,6.10
2016,04,07,07,58,6.10
2016,04,07,07,59,6.10
2016,04,07,08,00,6.20
2016,04,07,08,01,6.20
2016,04,07,08,02,6.20
2016,04,07,08,03,6.20
2016,04,07,08,04,6.20
2016,04,07,08,05,6.20
2016,04,07,08,06,6.20
2016,04,07,08,07,6.20
2016,04,07,08,08,6.20
2016,04,07,08,09,6.20
2016,04,07,08,10,6.30
2016,04,07,08,11,6.30
2016,04,07,08,12,6.30
2016,04,07,08,13,6.30
2016,04,07,08,14,6.30
2016,04,07,08,15,6.30
2016,04,07,08,16,6.30
2016,04,07,08,17,6.30
2016,04,07,08,18,6.30
2016,04,07,08,19,6.30
2016,04,07,08,20,6.30
2016,04,07,08,21,6.30
2016,04,07,08,22,6.30
2016,04,07,08,23,6.40
2016,04,07,08,24,6.40
2016,04,07,08,25,6.40
2016,04,07,08,26,6.40
2016,04,07,08,27,6.40
2016,04,07,08,28,6.40
2016,04,07,08,29,6.40
2016,04,07,08,30,6.40
2016,04,07,08,31,6.50
2016,04,07,08,32,6.50
2016,04,07,08,33,6.50
2016,04,07,08,34,6.50
2016,04,07,08,35,6.50
2016,04,07,08,36,6.50
2016,04,07,08,37,6.60
2016,04,07,08,38,6.60
2016,04,07,08,39,6.60
2016,04,07,08,40,6.60
2016,04,07,08,41,6.70
2016,04,07,08,42,6.70
2016,04,07,08,43,6.80
2016,04,07,08,44,6.80
2016,04,07,08,45,6.90
2016,04,07,08,46,6.90
2016,04,07,08,47,7.00
2016,04,07,08,48,7.00
2016,04,07,08,49,7.10
2016,04,07,08,50,7.10
2016,04,07,08,51,7.10
2016,04,07,08,52,7.20
2016,04,07,08,53,7.20
2016,04,07,08,54,7.20
2016,04,07,08,55,7.20
2016,04,07,08,56,7.20
2016,04,07,08,57,7.20
2016,04,07,08,58,7.30
2016,04,07,08,59,7.30
2016,04,07,09,00,7.40
2016,04,07,09,01,7.40
2016,04,07,09,02,7.50
2016,04,07,09,03,7.60
2016,04,07,09,04,7.60
2016,04,07,09,05,7.60
2016,04,07,09,06,7.70
2016,04,07,09,07,7.80
2016,04,07,09,08,7.80
2016,04,07,09,09,7.90
2016,04,07,09,10,7.90
2016,04,07,09,11,8.00
2016,04,07,09,12,8.00
2016,04,07,09,13,8.10
2016,04,07,09,14,8.20
2016,04,07,09,15,8.20
2016,04,07,09,16,8.30
2016,04,07,09,17,8.40
2016,04,07,09,18,8.40
2016,04,07,09,19,8.40
2016,04,07,09,20,8.50
2016,04,07,09,21,8.60
2016,04,07,09,22,8.60
2016,04,07,09,23,8.60
2016,04,07,09,24,8.70
2016,04,07,09,25,8.70
2016,04,07,09,26,8.70
2016,04,07,09,27,8.80
2016,04,07,09,28,8.80
2016,04,07,09,29,8.80
2016,04,07,09,30,8.90
2016,04,07,09,31,8.90
2016,04,07,09,32,8.90
2016,04,07,09,33,9.00
2016,04,07,09,34,9.00
2016,04,07,09,35,9.10
2016,04,07,09,36,9.10
2016,04,07,09,37,9.10
2016,04,07,09,38,9.10
2016,04,07,09,39,9.20
2016,04,07,09,40,9.20
2016,04,07,09,41,9.20
2016,04,07,09,42,9.30
2016,04,07,09,43,9.30
2016,04,07,09,44,9.30
2016,04,07,09,45,9.30
2016,04,07,09,46,9.30
2016,04,07,09,47,9.40
2016,04,07,09,48,9.40
2016,04,07,09,49,9.50
2016,04,07,09,50,9.50
2016,04,07,09,51,9.50
2016,04,07,09,52,9.60
2016,04,07,09,53,9.60
2016,04,07,09,54,9.60
2016,04,07,09,55,9.70
2016,04,07,09,56,9.70
2016,04,07,09,57,9.80
2016,04,07,09,58,9.80
2016,04,07,09,59,9.90
2016,04,07,10,00,10.00
2016,04,07,10,01,10.00
2016,04,07,10,02,10.10
2016,04,07,10,03,10.10
2016,04,07,10,04,10.20
2016,04,07,10,05,10.20
2016,04,07,10,06,10.30
2016,04,07,10,07,10.30
2016,04,07,10,08,10.30
2016,04,07,10,09,10.40
2016,04,07,10,10,10.40
2016,04,07,10,11,10.50
2016,04,07,10,12,10.50
2016,04,07,10,13,10.60
2016,04,07,10,14,10.60
2016,04,07,10,15,10.70
2016,04,07,10,16,10.70
2016,04,07,10,17,10.80
2016,04,07,10,18,10.80
2016,04,07,10,19,10.90
2016,04,07,10,20,11.00
2016,04,07,10,21,11.00
2016,04,07,10,22,11.10
2016,04,07,10,23,11.20
2016,04,07,10,24,11.20
2016,04,07,10,25,11.30
2016,04,07,10,26,11.30
2016,04,07,10,27,11.30
2016,04,07,10,28,11.40
2016,04,07,10,29,11.40
2016,04,07,10,30,11.50
2016,04,07,10,31,11.60
2016,04,07,10,32,11.60
2016,04,07,10,33,11.70
2016,04,07,10,34,11.70
2016,04,07,10,35,11.70
2016,04,07,10,36,11.70
2016,04,07,10,37,11.80
2016,04,07,10,38,11.80
2016,04,07,10,39,11.80
2016,04,07,10,40,11.80
2016,04,07,10,41,11.80
2016,04,07,10,42,11.90
2016,04,07,10,43,11.90
2016,04,07,10,44,11.90
2016,04,07,10,45,12.00
2016,04,07,10,46,12.10
2016,04,07,10,47,12.10
2016,04,07,10,48,12.10
2016,04,07,10,49,12.20
2016,04,07,10,50,12.20
2016,04,07,10,51,12.20
2016,04,07,10,52,12.20
2016,04,07,10,53,12.30
2016,04,07,10,54,12.30
2016,04,07,10,55,12.40
2016,04,07,10,56,12.40
2016,04,07,10,57,12.40
2016,04,07,10,58,12.50
2016,04,07,10,59,12.60
2016,04,07,11,00,12.60
2016,04,07,11,01,12.70
2016,04,07,11,02,12.70
2016,04,07,11,03,12.80
2016,04,07,11,04,12.80
2016,04,07,11,05,12.90
2016,04,07,11,06,13.00
2016,04,07,11,07,13.00
2016,04,07,11,08,13.10
2016,04,07,11,09,13.20
2016,04,07,11,10,13.20
2016,04,07,11,11,13.30
2016,04,07,11,12,13.30
2016,04,07,11,13,13.30
2016,04,07,11,14,13.40
2016,04,07,11,15,13.40
2016,04,07,11,16,13.40
2016,04,07,11,17,13.40
2016,04,07,11,18,13.40
2016,04,07,11,19,13.50
2016,04,07,11,20,13.50
2016,04,07,11,21,13.60
2016,04,07,11,22,13.60
2016,04,07,11,23,13.70
2016,04,07,11,24,13.70
2016,04,07,11,25,13.80
2016,04,07,11,26,13.80
2016,04,07,11,27,13.80
2016,04,07,11,28,13.80
2016,04,07,11,29,13.90
2016,04,07,11,30,13.90
2016,04,07,11,31,13.90
2016,04,07,11,32,13.90
2016,04,07,11,33,13.90
2016,04,07,11,34,14.00
2016,04,07,11,35,14.00
2016,04,07,11,36,14.00
2016,04,07,11,37,14.10
2016,04,07,11,38,14.10
2016,04,07,11,39,14.10
2016,04,07,11,40,14.10
2016,04,07,11,41,14.20
2016,04,07,11,42,14.20
2016,04,07,11,43,14.20
2016,04,07,11,44,14.30
2016,04,07,11,45,14.30
2016,04,07,11,46,14.30
2016,04,07,11,47,14.40
2016,04,07,11,48,14.40
2016,04,07,11,49,14.40
2016,04,07,11,50,14.40
2016,04,07,11,51,14.40
2016,04,07,11,52,14.40
2016,04,07,11,53,14.40
2016,04,07,11,54,14.40
2016,04,07,11,55,14.40
2016,04,07,11,56,14.40
2016,04,07,11,57,14.50
2016,04,07,11,58,14.50
2016,04,07,11,59,14.60
2016,04,07,12,00,14.60
2016,04,07,12,01,14.60
2016,04,07,12,02,14.70
2016,04,07,12,03,14.70
2016,04,07,12,04,14.70
2016,04,07,12,05,14.70
2016,04,07,12,06,14.70
2016,04,07,12,07,14.70
2016,04,07,12,08,14.70
2016,04,07,12,09,14.80
2016,04,07,12,10,14.80
2016,04,07,12,11,14.80
2016,04,07,12,12,14.80
2016,04,07,12,13,14.80
2016,04,07,12,14,14.80
2016,04,07,12,15,14.90
2016,04,07,12,16,14.90
2016,04,07,12,17,15.00
2016,04,07,12,18,15.00
2016,04,07,12,19,15.00
2016,04,07,12,20,15.00
2016,04,07,12,21,15.10
2016,04,07,12,22,15.20
2016,04,07,12,23,15.30
2016,04,07,12,24,15.30
2016,04,07,12,25,15.40
2016,04,07,12,26,15.40
2016,04,07,12,27,15.50
2016,04,07,12,28,15.50
2016,04,07,12,29,15.60
2016,04,07,12,30,15.60
2016,04,07,12,31,15.60
2016,04,07,12,32,15.70
2016,04,07,12,33,15.70
2016,04,07,12,34,15.70
2016,04,07,12,35,15.70
2016,04,07,12,36,15.80
2016,04,07,12,37,15.80
2016,04,07,12,38,15.80
2016,04,07,12,39,15.80
2016,04,07,12,40,15.80
2016,04,07,12,41,15.80
2016,04,07,12,42,15.80
2016,04,07,12,43,15.80
2016,04,07,12,44,15.90
2016,04,07,12,45,15.90
2016,04,07,12,46,15.90
2016,04,07,12,47,16.00
2016,04,07,12,48,16.00
2016,04,07,12,49,16.10
2016,04,07,12,50,16.10
2016,04,07,12,51,16.10
2016,04,07,12,52,16.20
2016,04,07,12,53,16.20
2016,04,07,12,54,16.20
2016,04,07,12,55,16.20
2016,04,07,12,56,16.20
2016,04,07,12,57,16.30
2016,04,07,12,58,16.30
2016,04,07,12,59,16.30
2016,04,07,13,00,16.30
2016,04,07,13,01,16.40
2016,04,07,13,02,16.40
2016,04,07,13,03,16.50
2016,04,07,13,04,16.50
2016,04,07,13,05,16.60
2016,04,07,13,06,16.70
2016,04,07,13,07,16.70
2016,04,07,13,08,16.80
2016,04,07,13,09,16.90
2016,04,07,13,10,16.90
2016,04,07,13,11,17.00
2016,04,07,13,12,17.00
2016,04,07,13,13,17.00
2016,04,07,13,14,17.00
2016,04,07,13,15,17.00
2016,04,07,13,16,17.00
2016,04,07,13,17,17.10
2016,04,07,13,18,17.10
2016,04,07,13,19,17.10
2016,04,07,13,20,17.10
2016,04,07,13,21,17.20
2016,04,07,13,22,17.20
2016,04,07,13,23,17.10
2016,04,07,13,24,17.10
2016,04,07,13,25,17.00
2016,04,07,13,26,17.00
2016,04,07,13,27,16.90
2016,04,07,13,28,16.90
2016,04,07,13,29,16.90
2016,04,07,13,30,16.90
2016,04,07,13,31,16.90
2016,04,07,13,32,16.90
2016,04,07,13,33,16.90
2016,04,07,13,34,17.00
2016,04,07,13,35,17.10
2016,04,07,13,36,17.10
2016,04,07,13,37,17.10
2016,04,07,13,38,17.20
2016,04,07,13,39,17.20
2016,04,07,13,40,17.30
2016,04,07,13,41,17.30
2016,04,07,13,42,17.40
2016,04,07,13,43,17.50
2016,04,07,13,44,17.60
2016,04,07,13,45,17.60
2016,04,07,13,46,17.70
2016,04,07,13,47,17.70
2016,04,07,13,48,17.70
2016,04,07,13,49,17.70
2016,04,07,13,50,17.70
2016,04,07,13,51,17.70
2016,04,07,13,52,17.70
2016,04,07,13,53,17.80
2016,04,07,13,54,17.80
2016,04,07,13,55,17.90
2016,04,07,13,56,18.00
2016,04,07,13,57,18.10
2016,04,07,13,58,18.10
2016,04,07,13,59,18.20
2016,04,07,14,00,18.30
2016,04,07,14,01,18.40
2016,04,07,14,02,18.40
2016,04,07,14,03,18.50
2016,04,07,14,04,18.50
2016,04,07,14,05,18.60
2016,04,07,14,06,18.60
2016,04,07,14,07,18.60
2016,04,07,14,08,18.70
2016,04,07,14,09,18.70
2016,04,07,14,10,18.70
2016,04,07,14,11,18.70
2016,04,07,14,12,18.70
2016,04,07,14,13,18.70
2016,04,07,14,14,18.80
2016,04,07,14,15,18.80
2016,04,07,14,16,18.90
2016,04,07,14,17,18.90
2016,04,07,14,18,18.90
2016,04,07,14,19,19.00
2016,04,07,14,20,19.10
2016,04,07,14,21,19.10
2016,04,07,14,22,19.20
2016,04,07,14,23,19.30
2016,04,07,14,24,19.30
2016,04,07,14,25,19.30
2016,04,07,14,26,19.30
2016,04,07,14,27,19.30
2016,04,07,14,28,19.30
2016,04,07,14,29,19.40
2016,04,07,14,30,19.40
2016,04,07,14,31,19.40
2016,04,07,14,32,19.50
2016,04,07,14,33,19.50
2016,04,07,14,34,19.60
2016,04,07,14,35,19.50
2016,04,07,14,36,19.50
2016,04,07,14,37,19.50
2016,04,07,14,38,19.50
2016,04,07,14,39,19.50
2016,04,07,14,40,19.50
2016,04,07,14,41,19.60
2016,04,07,14,42,19.60
2016,04,07,14,43,19.60
2016,04,07,14,44,19.60
2016,04,07,14,45,19.60
2016,04,07,14,46,19.60
2016,04,07,14,47,19.70
2016,04,07,14,48,19.70
2016,04,07,14,49,19.80
2016,04,07,14,50,19.90
2016,04,07,14,51,19.90
2016,04,07,14,52,20.00
2016,04,07,14,53,20.00
2016,04,07,14,54,20.00
2016,04,07,14,55,20.10
2016,04,07,14,56,20.10
2016,04,07,14,57,20.20
2016,04,07,14,58,20.20
2016,04,07,14,59,20.20
2016,04,07,15,00,20.30
2016,04,07,15,01,20.30
2016,04,07,15,02,20.30
2016,04,07,15,03,20.40
2016,04,07,15,04,20.50
2016,04,07,15,05,20.50
2016,04,07,15,06,20.60
2016,04,07,15,07,20.70
2016,04,07,15,08,20.80
2016,04,07,15,09,20.90
2016,04,07,15,10,21.00
2016,04,07,15,11,21.10
2016,04,07,15,12,21.20
2016,04,07,15,13,21.30
2016,04,07,15,14,21.50
2016,04,07,15,15,21.60
2016,04,07,15,16,21.70
2016,04,07,15,17,21.80
2016,04,07,15,18,21.90
2016,04,07,15,19,21.90
2016,04,07,15,20,21.90
2016,04,07,15,21,21.90
2016,04,07,15,22,21.80
2016,04,07,15,23,21.90
2016,04,07,15,24,21.90
2016,04,07,15,25,21.90
2016,04,07,15,26,22.00
2016,04,07,15,27,22.00
2016,04,07,15,28,22.10
2016,04,07,15,29,22.10
2016,04,07,15,30,22.20
2016,04,07,15,31,22.20
2016,04,07,15,32,22.20
2016,04,07,15,33,22.20
2016,04,07,15,34,22.20
2016,04,07,15,35,22.20
2016,04,07,15,36,22.10
2016,04,07,15,37,22.10
2016,04,07,15,38,22.20
2016,04,07,15,39,22.20
2016,04,07,15,40,22.30
2016,04,07,15,41,22.40
2016,04,07,15,42,22.40
2016,04,07,15,43,22.50
2016,04,07,15,44,22.60
2016,04,07,15,45,22.60
2016,04,07,15,46,22.60
2016,04,07,15,47,22.70
2016,04,07,15,48,22.60
2016,04,07,15,49,22.60
2016,04,07,15,50,22.60
2016,04,07,15,51,22.60
2016,04,07,15,52,22.60
2016,04,07,15,53,22.60
2016,04,07,15,54,22.60
2016,04,07,15,55,22.60
2016,04,07,15,56,22.60
2016,04,07,15,57,22.70
2016,04,07,15,58,22.70
2016,04,07,15,59,22.70
2016,04,07,16,00,22.80
2016,04,07,16,01,22.80
2016,04,07,16,02,22.80
2016,04,07,16,03,22.80
2016,04,07,16,04,22.80
2016,04,07,16,05,22.80
2016,04,07,16,06,22.70
2016,04,07,16,07,22.70
2016,04,07,16,08,22.70
2016,04,07,16,09,22.60
2016,04,07,16,10,22.60
2016,04,07,16,11,22.60
2016,04,07,16,12,22.70
2016,04,07,16,13,22.70
2016,04,07,16,14,22.80
2016,04,07,16,15,22.90
2016,04,07,16,16,23.00
2016,04,07,16,17,23.00
2016,04,07,16,18,23.10
2016,04,07,16,19,23.10
2016,04,07,16,20,23.20
2016,04,07,16,21,23.20
2016,04,07,16,22,23.20
2016,04,07,16,23,23.30
2016,04,07,16,24,23.30
2016,04,07,16,25,23.30
2016,04,07,16,26,23.30
2016,04,07,16,27,23.40
2016,04,07,16,28,23.40
2016,04,07,16,29,23.40
2016,04,07,16,30,23.40
2016,04,07,16,31,23.50
2016,04,07,16,32,23.60
2016,04,07,16,33,23.50
2016,04,07,16,34,23.40
2016,04,07,16,35,23.40
2016,04,07,16,36,23.40
2016,04,07,16,37,23.40
2016,04,07,16,38,23.40
2016,04,07,16,39,23.40
2016,04,07,16,40,23.50
2016,04,07,16,41,23.50
2016,04,07,16,42,23.60
2016,04,07,16,43,23.60
2016,04,07,16,44,23.50
2016,04,07,16,45,23.40
2016,04,07,16,46,23.30
2016,04,07,16,47,23.20
2016,04,07,16,48,23.10
2016,04,07,16,49,23.00
2016,04,07,16,50,22.90
2016,04,07,16,51,22.80
2016,04,07,16,52,22.70
2016,04,07,16,53,22.70
2016,04,07,16,54,22.80
2016,04,07,16,55,22.80
2016,04,07,16,56,22.90
2016,04,07,16,57,22.90
2016,04,07,16,58,23.00
2016,04,07,16,59,23.00
2016,04,07,17,00,23.10
2016,04,07,17,01,23.20
2016,04,07,17,02,23.20
2016,04,07,17,03,23.20
2016,04,07,17,04,23.20
2016,04,07,17,05,23.30
2016,04,07,17,06,23.20
2016,04,07,17,07,23.20
2016,04,07,17,08,23.20
2016,04,07,17,09,23.20
2016,04,07,17,10,23.20
2016,04,07,17,11,23.20
2016,04,07,17,12,23.20
2016,04,07,17,13,23.20
2016,04,07,17,14,23.10
2016,04,07,17,15,23.10
2016,04,07,17,16,23.10
2016,04,07,17,17,23.00
2016,04,07,17,18,23.00
2016,04,07,17,19,23.00
2016,04,07,17,20,22.90
2016,04,07,17,21,22.90
2016,04,07,17,22,22.80
2016,04,07,17,23,22.80
2016,04,07,17,24,22.60
2016,04,07,17,25,22.60
2016,04,07,17,26,22.60
2016,04,07,17,27,22.60
2016,04,07,17,28,22.50
2016,04,07,17,29,22.50
2016,04,07,17,30,22.60
2016,04,07,17,31,22.50
2016,04,07,17,32,22.40
2016,04,07,17,33,22.40
2016,04,07,17,34,22.40
2016,04,07,17,35,22.40
2016,04,07,17,36,22.30
2016,04,07,17,37,22.30
2016,04,07,17,38,22.30
2016,04,07,17,39,22.20
2016,04,07,17,40,22.20
2016,04,07,17,41,22.10
2016,04,07,17,42,22.10
2016,04,07,17,43,22.10
2016,04,07,17,44,22.00
2016,04,07,17,45,21.90